Regional Weather Roundup
Issued by NWS

Home | Current Version | Previous Version | Graphics & Text | Print | Product List | Glossary On
Versions: 1 2 3 4 5 6 7 8 9 10 11 12 13 14 15 16 17 18 19 20 21 22 23 24 25 26 27
000
ASUS45 KSLC 200710
RWRUT

UTAH REGIONAL WEATHER ROUNDUP
NATIONAL WEATHER SERVICE SALT LAKE CITY UT
100 AM MDT SUN AUG 20 2017

UTZ001>011-023>025-200800-

NORTHERN UTAH

CITY           SKY/WX    TMP DP  RH WIND       PRES   REMARKS
BRIGHAM CITY   CLEAR     68  42  37 W6        30.00R
HILL AFB       CLEAR     73  36  26 SE14      30.02S
LOGAN          CLEAR     59  44  57 N3        30.02S
OGDEN          CLEAR     70  39  32 S7        29.99S
SALT LAKE CITY PTCLDY    78  43  28 SE8       29.99R
TOOELE VALLEY  PTCLDY    64  39  39 S10       30.01R
WENDOVER       PTCLDY    73  37  27 W7        29.98S
HEBER CITY     MOCLDY    59  43  55 CALM      30.12R
WEST JORDAN    PTCLDY    73  48  41 SW7       30.03R

$$

UTZ011>015-024>027-200800-

CENTRAL/NORTHEAST UTAH

CITY           SKY/WX    TMP DP  RH WIND       PRES   REMARKS
PROVO AIRPORT  MOCLDY    73  46  38 S8        30.04R
MOAB/CANYONLAN MOCLDY    75  34  22 NE6       30.01S
DELTA          MOCLDY    72  36  26 N6        30.04F
PRICE          PTCLDY    65  40  39 W5        30.15S
ROOSEVELT      CLEAR     59  45  58 W6        30.12S
VERNAL         CLEAR     63  43  48 S3        30.10R

$$

UTZ013>016-019>022-027-200800-

SOUTHERN UTAH

CITY           SKY/WX    TMP DP  RH WIND       PRES   REMARKS
BRYCE CANYON   CLEAR     50  38  63 W7        30.31R
CEDAR CITY     CLEAR     68  36  30 SE9       30.14S
MILFORD        PTCLDY    72  34  24 S10       30.09R
ST GEORGE      PTSUNNY   81  41  24 E3        29.94R
HANKSVILLE     MOCLDY    79  34  19 N10       30.03F
BLANDING       MOCLDY    73  33  23 NW8       30.19F

$$

REGIONAL REPORTS     COLORADO/ARIZONA

CITY           SKY/WX    TMP DP  RH WIND       PRES   REMARKS
CRAIG, CO      CLEAR     57  41  55 CALM      30.19R
GRAND JUNCTION CLEAR     68  34  28 W7        30.07R
RIFLE, CO      CLOUDY    61  37  41 SE3       30.15R
MONTROSE, CO   CLEAR     65  38  36 SE10      30.16S
CORTEZ, CO     CLOUDY    57  40  52 E3        30.13F
COLORADO CITY    N/A     64  45  48 SE5       30.13R
PAGE, AZ       CLEAR     84  36  18 W5        30.01R
GRAND CANYON   PTCLDY    53  40  61 CALM      30.26S
KINGMAN, AZ    CLEAR     78  44  29 S12       30.00S
FLAGSTAFF, AZ  MOCLDY    59  44  57 CALM      30.29S

$$

REGIONAL REPORTS    NEVADA/IDAHO/WYOMING

CITY           SKY/WX    TMP DP  RH WIND       PRES   REMARKS
LAS VEGAS, NV  CLEAR     91  42  18 S8        29.86S
ELY, NY        CLEAR     55  35  47 S13       30.17S
ELKO, NV       PTCLDY    68  31  25 NE3       30.06R
POCATELLO, ID  CLOUDY    72  33  24 SW17      30.04R
BURLEY, ID     PTCLDY    68  33  27 SW10      30.02R
FORT BRIDGER,    N/A     66  32  28 S10       30.25S
EVANSTON, WY   CLOUDY    62  35  36 S7        30.23S
ROCK SPRINGS,  CLEAR     62  33  33 SW8       30.20S

$$




USA.gov is the U.S. government's official web portal to all federal, state and local government web resources and services.